Weather reports worldwide

Advertisment
Wilkes-Barre/Scrant PA, United States of America (72513): temperature & dewpoint: 09.09.2019 04:00:00 - 15.09.2019 04:00:00 (EDT)Wilkes-Barre/Scrant PA, United States of America (72513): wind speed: 09.09.2019 04:00:00 - 15.09.2019 04:00:00 (EDT)Wilkes-Barre/Scrant PA, United States of America (72513): wind direction: 09.09.2019 04:00:00 - 15.09.2019 04:00:00 (EDT)Wilkes-Barre/Scrant PA, United States of America (72513): reduced air pressure: 09.09.2019 04:00:00 - 15.09.2019 04:00:00 (EDT)Wilkes-Barre/Scrant PA, United States of America (72513): visibility: 09.09.2019 04:00:00 - 15.09.2019 04:00:00 (EDT)Wilkes-Barre/Scrant PA, United States of America (72513): precipitation: 09.09.2019 04:00:00 - 15.09.2019 04:00:00 (EDT)
Date & Time tt [°C] td [°C] ff [km/h] ff [kn] dd ppp [hPa] vv [km] rr [mm]
15.09.2019 04:00:00 17,2 17,2 0 0 N 1021,6 0,4 -
15.09.2019 03:00:00 17,2 16,7 0 0 N 1021,8 0,4 -
15.09.2019 02:00:00 17,8 17,2 0 0 N 1021,9 6 0,0
15.09.2019 01:00:00 17,8 17,2 0 0 N 1021,8 2,0 -
15.09.2019 00:00:00 17,8 17,2 0 0 N 1021,9 0,4 -
14.09.2019 23:00:00 18,3 17,8 0 0 N 1022,2 11 0,0
14.09.2019 22:00:00 18,9 18,3 0 0 N 1022,4 8 -
14.09.2019 21:00:00 19,4 18,3 0 0 N 1022,5 6 -
14.09.2019 20:00:00 18,9 18,3 0 0 N 1022,1 4,8 -
14.09.2019 19:00:00 18,9 18,3 0 0 N 1021,6 3,2 -
14.09.2019 18:00:00 18,9 18,3 0 0 N 1021,8 3,2 0,0
14.09.2019 17:00:00 19,4 17,8 5 3 WSW 1021,7 10 0,0
14.09.2019 16:00:00 20,0 16,7 9 5 SSW 1021,7 16 -
14.09.2019 15:00:00 20,0 16,7 11 6 SSW 1022,0 16 0,0
14.09.2019 14:00:00 20,0 16,1 9 5 - 1022,4 16 0,0
14.09.2019 13:00:00 19,4 15,6 16 9 SSW 1023,4 16 -
14.09.2019 12:00:00 18,9 15,0 11 6 - 1024,1 16 -
14.09.2019 11:00:00 18,3 14,4 13 7 SSW 1024,6 15 0,0
14.09.2019 10:00:00 17,8 13,9 9 5 - 1025,1 15 -
14.09.2019 09:00:00 17,8 13,3 11 6 SW 1025,2 16 -
14.09.2019 08:00:00 17,2 12,8 13 7 W 1025,2 16 0,0
14.09.2019 07:00:00 17,2 12,2 9 5 - 1025,2 16 -
14.09.2019 06:00:00 16,7 12,2 9 5 WSW 1025,6 16 -
14.09.2019 05:00:00 16,7 12,2 8 4 WSW 1025,1 16 0,0
14.09.2019 04:00:00 16,1 11,1 5 3 S 1025,8 16 -
14.09.2019 03:00:00 16,1 10,6 0 0 N 1025,9 16 -
14.09.2019 02:00:00 16,1 10,6 8 4 - 1026,9 16 0,0
14.09.2019 01:00:00 16,7 10,0 5 3 WSW 1027,2 16 -
14.09.2019 00:00:00 16,7 10,0 8 4 - 1028,0 16 -
13.09.2019 23:00:00 16,7 10,0 9 5 - 1028,0 16 0,0
13.09.2019 22:00:00 17,2 10,0 5 3 - 1028,6 16 -
13.09.2019 21:00:00 17,2 10,6 9 5 - 1028,8 16 -
13.09.2019 20:00:00 17,2 10,6 0 0 N 1028,6 16 0,0
13.09.2019 19:00:00 17,8 11,7 9 5 - 1028,7 16 -
13.09.2019 18:00:00 17,8 11,1 0 0 N 1029,2 16 -
13.09.2019 17:00:00 18,3 11,1 5 3 - 1029,2 16 0,0
13.09.2019 16:00:00 18,3 10,6 5 3 - 1029,3 16 -
13.09.2019 15:00:00 18,3 10,6 11 6 - 1029,4 16 -
13.09.2019 14:00:00 18,9 9,4 9 5 - 1029,7 16 0,0
13.09.2019 13:00:00 17,8 9,4 15 8 SSE 1030,0 16 -
13.09.2019 12:00:00 17,8 8,3 0 0 N 1030,0 16 -
13.09.2019 11:00:00 16,7 8,3 16 9 ESE 1030,1 16 0,0
13.09.2019 10:00:00 16,1 8,3 9 5 E 1030,3 16 -
13.09.2019 09:00:00 16,1 9,4 - - - 1029,9 16 -
13.09.2019 08:00:00 15,6 10,6 0 0 N 1029,5 16 0,0
13.09.2019 07:00:00 15,6 10,6 0 0 N 1028,7 16 -
13.09.2019 06:00:00 15,6 11,7 8 4 - 1027,4 16 -
13.09.2019 05:00:00 15,6 11,7 8 4 - 1026,9 16 0,0
13.09.2019 04:00:00 15,6 12,2 9 5 - 1026,6 16 -
13.09.2019 03:00:00 16,1 12,8 8 4 ENE 1026,1 16 -
13.09.2019 02:00:00 16,7 12,8 8 4 ENE 1026,0 16 -
13.09.2019 01:00:00 16,7 13,3 9 5 ENE 1025,3 16 -
13.09.2019 00:00:00 17,8 14,4 8 4 ENE 1024,7 16 -
12.09.2019 23:00:00 18,3 15,0 13 7 NE 1024,6 16 -
12.09.2019 22:00:00 18,9 16,1 8 4 ENE 1024,4 16 0,0
12.09.2019 21:00:00 19,4 18,3 9 5 ENE 1023,4 11 0,3
12.09.2019 20:00:00 20,0 18,3 9 5 ESE 1022,5 15 0,0
12.09.2019 19:00:00 21,1 18,3 0 0 N 1021,6 11 -
12.09.2019 18:00:00 22,2 17,8 9 5 N 1020,8 16 -
12.09.2019 17:00:00 22,8 18,9 11 6 N 1019,9 16 -
12.09.2019 16:00:00 22,8 19,4 16 9 N 1019,4 16 -
12.09.2019 15:00:00 23,3 20,0 13 7 N 1018,9 16 0,0
12.09.2019 14:00:00 22,8 20,6 0 0 N 1018,8 13 0,5
12.09.2019 13:00:00 22,8 20,0 5 3 N 1018,9 4,0 0,0
12.09.2019 12:00:00 24,4 19,4 0 0 N 1018,7 16 -
12.09.2019 11:00:00 23,3 20,0 9 5 NW 1019,0 16 0,0
12.09.2019 10:00:00 22,2 20,0 13 7 WNW 1018,9 15 0,0
12.09.2019 09:00:00 21,7 21,1 0 0 N 1018,3 8 -
12.09.2019 08:00:00 21,1 21,1 0 0 N 1017,9 0,8 -
12.09.2019 07:00:00 21,1 20,6 8 4 WSW 1017,7 1,2 -
12.09.2019 06:00:00 21,1 20,6 0 0 N 1016,8 2,4 -
12.09.2019 05:00:00 21,1 20,6 0 0 N 1016,6 2,8 -
12.09.2019 04:00:00 21,7 20,6 0 0 N 1016,7 8 0,5
12.09.2019 03:00:00 21,1 20,0 9 5 SSW 1017,1 8 0,3
12.09.2019 02:00:00 20,6 19,4 0 0 N 1016,8 13 -
12.09.2019 01:00:00 21,1 20,0 5 3 E 1017,0 15 -
12.09.2019 00:00:00 20,6 19,4 0 0 N 1017,7 13 -
11.09.2019 23:00:00 21,1 20,0 0 0 N 1017,7 13 -
11.09.2019 22:00:00 22,2 20,0 0 0 N 1018,1 16 -
11.09.2019 21:00:00 22,2 20,0 0 0 N 1018,4 16 0,0
11.09.2019 20:00:00 24,4 22,2 11 6 W 1018,4 15 0,0
11.09.2019 19:00:00 24,4 21,7 5 3 E 1016,9 13 -
11.09.2019 18:00:00 25,0 21,1 0 0 N 1017,2 15 1,5
11.09.2019 17:00:00 25,6 20,6 22 12 WSW 1017,3 10 0,3
11.09.2019 16:00:00 30,6 20,6 21 11 WSW 1017,3 16 -
11.09.2019 15:00:00 31,7 21,1 15 8 SW 1017,7 16 -
11.09.2019 14:00:00 30,6 20,6 22 12 WSW 1018,2 16 0,0
11.09.2019 13:00:00 29,4 20,6 22 12 WSW 1019,0 16 -
11.09.2019 12:00:00 27,8 20,0 15 8 SW 1020,0 16 -
11.09.2019 11:00:00 25,6 19,4 16 9 SW 1020,9 16 0,0
11.09.2019 10:00:00 23,9 18,9 22 12 WSW 1021,6 16 -
11.09.2019 09:00:00 22,8 18,3 11 6 W 1021,9 15 -
11.09.2019 08:00:00 21,1 17,8 5 3 WNW 1022,4 15 0,0
11.09.2019 07:00:00 18,9 17,2 0 0 N 1022,5 15 -
11.09.2019 06:00:00 20,0 17,2 8 4 WSW 1021,8 16 -
11.09.2019 05:00:00 20,0 17,2 15 8 SW 1021,7 16 0,0
11.09.2019 04:00:00 20,6 17,2 11 6 SSW 1021,7 16 -
11.09.2019 03:00:00 20,6 16,7 13 7 SSW 1022,2 16 -
11.09.2019 02:00:00 21,1 16,1 11 6 WSW 1022,2 16 0,0
11.09.2019 01:00:00 21,7 15,6 9 5 SW 1022,7 16 -
11.09.2019 00:00:00 21,7 15,0 13 7 WSW 1022,9 16 -
10.09.2019 23:00:00 22,8 15,6 11 6 SW 1023,0 16 0,0
10.09.2019 22:00:00 22,8 16,7 13 7 WSW 1023,1 16 -
10.09.2019 21:00:00 23,3 17,2 5 3 SW 1023,4 16 -
10.09.2019 20:00:00 23,3 17,2 8 4 SW 1023,5 16 0,0
10.09.2019 19:00:00 24,4 17,2 9 5 S 1023,7 16 -
10.09.2019 18:00:00 26,1 17,2 9 5 SW 1024,0 16 -
10.09.2019 17:00:00 26,7 17,2 11 6 SW 1024,2 16 0,0
10.09.2019 16:00:00 26,7 17,2 16 9 SW 1024,3 16 -
10.09.2019 15:00:00 26,1 17,2 9 5 S 1024,5 16 -
10.09.2019 14:00:00 26,1 17,2 15 8 SW 1024,9 16 0,0
10.09.2019 13:00:00 25,6 17,2 16 9 SSW 1025,4 16 -
10.09.2019 12:00:00 25,0 17,2 15 8 WSW 1026,0 16 -
10.09.2019 11:00:00 23,9 17,2 8 4 - 1026,5 16 0,0
10.09.2019 10:00:00 22,8 17,2 13 7 SW 1026,7 16 -
10.09.2019 09:00:00 20,0 16,1 0 0 N 1026,9 15 -
10.09.2019 08:00:00 17,8 16,1 0 0 N 1026,7 11 0,0
10.09.2019 07:00:00 16,1 15,0 5 3 E 1026,3 11 -
10.09.2019 06:00:00 16,7 15,0 5 3 - 1025,9 10 -
10.09.2019 05:00:00 17,2 15,0 0 0 N 1025,8 16 0,0
10.09.2019 04:00:00 17,2 15,0 0 0 N 1025,6 16 -
10.09.2019 03:00:00 16,7 15,0 0 0 N 1025,4 15 -
10.09.2019 02:00:00 16,7 13,9 5 3 ENE 1025,3 16 0,0
10.09.2019 01:00:00 16,1 13,9 0 0 N 1025,3 16 -
10.09.2019 00:00:00 15,0 12,8 5 3 SE 1025,1 16 -
09.09.2019 23:00:00 16,1 13,3 11 6 ESE 1025,3 16 0,0
09.09.2019 22:00:00 17,2 13,9 11 6 ESE 1024,9 16 -
09.09.2019 21:00:00 17,8 13,9 11 6 ESE 1024,6 16 -
09.09.2019 20:00:00 19,4 14,4 9 5 ESE 1023,5 16 0,0
09.09.2019 19:00:00 23,3 12,8 0 0 N 1023,2 16 -
09.09.2019 18:00:00 24,4 12,2 5 3 NW 1023,0 16 -
09.09.2019 17:00:00 25,0 12,2 5 3 - 1023,1 16 0,0
09.09.2019 16:00:00 24,4 13,3 0 0 N 1023,1 16 -
09.09.2019 15:00:00 24,4 13,9 8 4 WSW 1022,9 16 -
09.09.2019 14:00:00 24,4 13,9 13 7 N 1023,3 16 0,0
09.09.2019 13:00:00 22,2 12,8 0 0 N 1023,7 16 -
09.09.2019 12:00:00 22,2 12,2 0 0 N 1024,3 16 -
09.09.2019 11:00:00 19,4 11,7 0 0 N 1024,7 16 0,0
09.09.2019 10:00:00 17,8 12,2 5 3 NNW 1024,9 16 -
09.09.2019 09:00:00 16,7 11,7 0 0 N 1024,2 16 -
09.09.2019 08:00:00 15,6 11,1 0 0 N 1023,8 16 0,0
09.09.2019 07:00:00 13,9 11,1 8 4 E 1023,5 16 -
09.09.2019 06:00:00 13,9 11,7 8 4 ESE 1023,0 16 -
09.09.2019 05:00:00 13,9 11,7 5 3 ESE 1022,3 16 0,0
09.09.2019 04:00:00 15,0 12,2 8 4 E 1022,2 16 -

tt = temperature
td = dewpoint
ff = wind speed
dd = wind direction
ppp = reduced air pressure
vv = visibility
rr = precipitation

Next stations